Regional Weather Roundup
Issued by NWS San Angelo, TX

Home | Current Version | Previous Version | Text Only | Print | Product List | Glossary On
Versions: 1 2 3 4 5 6 7 8 9 10 11 12 13 14 15 16 17 18 19 20 21 22 23 24 25 26 27 28 29 30 31 32 33 34 35 36 37 38 39 40 41 42 43 44 45 46 47 48 49 50
000
ASUS44 KSJT 080611
RWRSJT
WEST CENTRAL TEXAS REGIONAL WEATHER ROUNDUP
NATIONAL WEATHER SERVICE SAN ANGELO TX
1200 AM CST MON FEB 08 2016

NOTE: "FAIR" INDICATES FEW OR NO CLOUDS BELOW 12,000 FEET WITH NO
SIGNIFICANT WEATHER AND/OR OBSTRUCTIONS TO VISIBILITY.

TXZ049-054-064>066-071>073-076>078-098-099-113-114-127-128-139-140-
154-155-168>170-080700
...LOCATIONS ACROSS WEST CENTRAL TEXAS...

CITY           SKY/WX    TMP DP  RH WIND       PRES   REMARKS
SAN ANGELO     CLEAR     48  26  42 NE6       30.31R
ABILENE        NOT AVBL
DYESS AFB      CLEAR     45  25  46 NE16G22   30.35R WCI  37
JUNCTION       CLOUDY    49  23  36 N8        30.27R
SWEETWATER     CLOUDY    44  22  41 N15G24    30.39R WCI  37
BROWNWOOD      CLEAR     50  27  40 N12G17    30.29R
COLEMAN        CLEAR     46  26  45 N15       30.30R
SONORA         CLOUDY    45  23  42 N8        30.33R
OZONA          FAIR      45  25  45 N10       30.32R WCI  39
BRADY          NOT AVBL
$$

TEXAS PANHANDLE/OKLAHOMA PANHANDLE

CITY           SKY/WX    TMP DP  RH WIND       PRES   REMARKS
AMARILLO       CLEAR     26  12  55 N12       30.43R WCI  16
BORGER         CLEAR     33  14  45 NW9       30.43R WCI  25
CANADIAN       CLOUDY    39  15  37 NW14G21   30.39R WCI  31
DALHART        CLOUDY    23  13  65 NW6       30.45R WCI  16
DUMAS          CLOUDY    21  12  68 NW9       30.44R WCI  11
GUYMON         NOT AVBL
HEREFORD       NOT AVBL
PAMPA          PTCLDY    26  16  67 NW10      30.41R WCI  16
PERRYTON       PTCLDY    32  18  55 NW14      30.38R WCI  22
$$

SOUTHERN PANHANDLE/SOUTH PLAINS/ROLLING PLAINS

CITY           SKY/WX    TMP DP  RH WIND       PRES   REMARKS
LUBBOCK        PTCLDY    34  18  52 NE8       30.39R WCI  27
SNYDER           N/A     44  22  42 NE17      30.37S WCI  36
CHILDRESS      CLEAR     36  15  42 NW9       30.40R WCI  29
SEMINOLE       CLOUDY    40  21  46 NE14      30.38R WCI  32
$$

PERMIAN BASIN

CITY           SKY/WX    TMP DP  RH WIND       PRES   REMARKS
MIDLAND        CLOUDY    49  24  37 E14       30.32R
ODESSA         CLOUDY    47  23  38 E13       30.33R
WINK           PTCLDY    49  21  33 E10       30.30R
$$

FAR WEST/SOUTHWEST MOUNTAINS/TRANS PECOS

CITY           SKY/WX    TMP DP  RH WIND       PRES   REMARKS
ALPINE         CLOUDY    37  18  45 S5        30.38R WCI  34
DRYDEN           N/A     52  17  25 N10       30.26R
EL PASO        CLOUDY    45  16  31 N5        30.30R
FORT STOCKTON  CLOUDY    46  21  37 E7        30.31R
GUADALUPE PASS CLOUDY    48  15  26 NE25      30.34R
MARFA          CLOUDY    32  12  43 N7        30.35R WCI  26
PECOS          CLOUDY    38  20  48 CALM      30.32R
$$

DALLAS/FORT WORTH METROPLEX

CITY           SKY/WX    TMP DP  RH WIND       PRES   REMARKS
DFW AIRPORT    PTCLDY    50  28  42 N13       30.27R
FTW MEACHAM    CLEAR     52  27  38 N16G23    30.29R
DAL-EXECUTIVE  CLEAR     49  31  49 N12       30.26R
GRAND PRAIRIE  CLEAR     51  28  40 NW8G16    30.29R
ADDISON        PTCLDY    48  33  57 NW8       30.29R
MESQUITE       CLEAR     46  32  59 NW9       30.26R
LANCASTER      CLEAR     46  30  53 NW9       30.27R
$$

NORTH CENTRAL TEXAS

CITY           SKY/WX    TMP DP  RH WIND       PRES   REMARKS
SHRMAN/DENISON PTCLDY    47  27  47 NW16      30.28R WCI  40
GAINESVILLE    PTCLDY    46  23  39 NW14      30.31R
BRIDGEPORT     CLEAR     48  31  51 N8        30.34S
DENTON         PTCLDY    46  28  49 NW12      30.29R
WAXAHACHIE     CLEAR     48  33  56 N12       30.27R
GRANBURY       CLEAR     48  30  50 N9        30.31R
$$

WESTERN NORTH TEXAS

CITY           SKY/WX    TMP DP  RH WIND       PRES   REMARKS
WICHITA FALLS  CLEAR     40  20  44 NW12      30.34S WCI  33
VERNON         CLEAR     38  14  37 NW7       30.38S WCI  33
BRECKENRIDGE   CLEAR     47  24  39 N10       30.36R
COMANCHE       CLEAR     45  31  56 N9        30.30R
$$

CENTRAL AND SOUTH CENTRAL TEXAS

CITY           SKY/WX    TMP DP  RH WIND       PRES   REMARKS
AUSTIN/BERGSTM CLOUDY    40  32  73 SE5       30.18R WCI  37
WACO           CLEAR     46  35  65 NW10      30.24R
HILLSBORO      CLEAR     43  31  63 N9        30.26R WCI  37
TEMPLE         CLEAR     42  33  70 N8        30.22R WCI  37
KILLEEN-GRAY   PTCLDY    45  34  65 N13       30.22R WCI  39
FORT HOOD      CLEAR     45  33  63 N13       30.21R WCI  39
GEORGETOWN     CLOUDY    43  32  65 N8        30.20R WCI  38
LAGO VISTA     FAIR      52  30  43 N6        30.19R
SAN MARCOS     PTCLDY    43  30  61 W6        30.20R WCI  39
NEW BRAUNFELS  CLOUDY    49  35  58 W10       30.18R
RANDOLPH AFB   CLOUDY    53  36  52 NW9       30.19R
SAN ANTONIO    CLOUDY    46  26  45 NW10      30.20R
STINSON        CLOUDY    47  36  65 W3        30.17R
PLEASANTON     NOT AVBL
LA GRANGE      CLOUDY    46  38  76 CALM      30.17R
GIDDINGS       CLOUDY    42  35  75 CALM      30.23R
$$

EAST TEXAS

CITY           SKY/WX    TMP DP  RH WIND       PRES   REMARKS
PARIS          PTCLDY    48  25  40 NW17G28   30.21S
CLARKSVILLE    NOT AVBL
TYLER          CLEAR     48  34  58 NW7       30.20R
LONGVIEW       CLEAR     45  34  65 NW10      30.16S WCI  40
PALESTINE      CLEAR     44  35  69 NW3       30.21R
NACOGDOCHES    CLEAR     36  30  80 CALM      30.17F
$$

TEXAS HILL COUNTRY AND EDWARDS PLATEAU

CITY           SKY/WX    TMP DP  RH WIND       PRES   REMARKS
LLANO          CLEAR     54  28  37 N15       30.27R
HORSESHOE BAY  FAIR      51  32  48 NW5       30.21R
KERRVILLE      CLOUDY    41  31  68 CALM      30.24R
FREDERICKSBRG  CLOUDY    45  25  46 NW3       30.23R
ROCKSPRINGS    CLOUDY    50  23  34 N7        30.28R
HONDO          PTCLDY    42  26  53 N9        30.21R WCI  37
UVALDE         CLOUDY    44  31  61 CALM      30.20F
DEL RIO        PTCLDY    49  27  42 NW6       30.20S
$$

SOUTHEAST TEXAS

CITY           SKY/WX    TMP DP  RH WIND       PRES   REMARKS
COLLEGE STN    CLEAR     48  34  58 SW3       30.19R
CALDWELL       CLOUDY    45  34  65 CALM      30.22R
CROCKETT       CLEAR     37  34  87 CALM      30.22S
BRENHAM        CLOUDY    45  37  73 CALM      30.20R
HUNTSVILLE     CLEAR     44  38  79 SW3       30.18S
CONROE         CLEAR     36  34  92 CALM      30.19R
HOUSTON BUSH   PTCLDY    48  41  76 W3        30.18R
HOUSTON HOBBY  PTCLDY    47  40  76 CALM      30.17S
PERLAND        CLEAR     45  41  86 CALM      30.19S
WHARTON        CLOUDY    45  40  85 CALM      30.18S
$$

THE UPPER TEXAS COAST

CITY           SKY/WX    TMP DP  RH WIND       PRES   REMARKS
ORANGE         CLEAR     40  38  91 CALM      30.18S FOG
PORT ARTHUR    FOG       43  42  97 CALM      30.16F VSB 1/2
GALVESTON      CLEAR     51  49  92 SW3       30.18S
ANGLETON       CLEAR     44  42  93 CALM      30.17S
BAY CITY       CLEAR     46  46 100 CALM      30.17S
$$

TEXAS COASTAL BEND, RIO GRANDE PLAINS DEEP SOUTH TEXAS

CITY           SKY/WX    TMP DP  RH WIND       PRES   REMARKS
VICTORIA       CLOUDY    48  45  89 SW7       30.18S
BEEVILLE       FAIR      50  44  79 S3        30.17F
ROCKPORT       CLOUDY    53  48  83 S5        30.17F
PORT ARANSAS   PTCLDY    58  53  83 S6        30.17F
PORT LAVACA    CLOUDY    48  46  93 S7        30.18S
CORPUS CHRISTI CLOUDY    52  44  74 S9        30.17F
KINGSVILLE NAS CLOUDY    44  41  89 SE3       30.18F
COTULLA        CLOUDY    50  28  42 SE8       30.18S
LAREDO         CLOUDY    53  30  41 SE6       30.17F
BROWNSVILLE    CLOUDY    54  50  86 SE5       30.17F
PORT ISABEL    PTCLDY    54  50  86 SE5       30.17F
HEBBRONVILLE   NOT AVBL
MCALLEN        CLOUDY    58  46  64 E6        30.16F
WESLACO        CLOUDY    53  45  73 CALM      30.16F
FALFURRIAS     MOCLDY    51  43  74 NE3       30.19S
EDINBURG       PTCLDY    54  42  65 CALM      30.18S
$$



USA.gov is the U.S. government's official web portal to all federal, state and local government web resources and services.